Regional Weather Roundup
Issued by NWS

Home | Current Version | Previous Version | Graphics & Text | Print | Product List | Glossary On
Versions: 1 2 3 4 5 6 7 8 9 10 11 12 13 14 15 16 17 18 19 20 21 22 23 24 25 26 27 28 29 30 31 32 33 34 35 36 37 38 39 40 41 42 43 44 45 46 47 48 49 50
735
ASUS43 KFSD 182010
RWRSD

WEATHER ROUNDUP FOR SOUTH DAKOTA
NATIONAL WEATHER SERVICE SIOUX FALLS SD
200 PM CST SAT NOV 18 2017

NOTE: "FAIR" INDICATES FEW OR NO CLOUDS BELOW 12,000 FEET WITH NO
SIGNIFICANT WEATHER AND/OR OBSTRUCTIONS TO VISIBILITY.


SDZ001>005-009-010-012>017-182100-
NORTHWEST AND NORTH CENTRAL SOUTH DAKOTA

CITY           SKY/WX    TMP DP  RH WIND       PRES   REMARKS
BUFFALO          N/A     43  21  41 NW21      30.01F
FAITH            N/A     37  24  59 NW18G25   30.09S
MOBRIDGE       SUNNY     34  17  50 NW15      30.08F WCI  24
$$

SDZ012>016-024>037-041>051-057-063-072>074-182100-
SOUTHWEST AND SOUTH CENTRAL SOUTH DAKOTA

CITY           SKY/WX    TMP DP  RH WIND       PRES   REMARKS
RAPID CTY ARPT CLOUDY    45  18  34 N18       30.12F
PIERRE         SUNNY     35  21  56 NW17G26   30.12F WCI  25
CUSTER         MOSUNNY   34  13  41 NW17G26   30.09F WCI  23
ELLSWORTH AFB  CLOUDY    44  17  33 NW18G25   30.10F
PHILIP         SUNNY     44  25  47 NW13      30.11F
PINE RIDGE     SUNNY     44  18  35 W12       30.15F
SPEARFISH      FAIR      41  16  36 NW22G28   30.11F
WINNER         FAIR      41  25  53 NW20G28   30.11F
$$

SDZ004>011-016>023-039-040-182100-
NORTHEAST SOUTH DAKOTA

CITY           SKY/WX    TMP DP  RH WIND       PRES   REMARKS
ABERDEEN       SUNNY     32  14  47 NW17G29   30.07F WCI  21
WATERTOWN      SUNNY     30  15  53 NW21      30.00S WCI  17
BROOKINGS      SUNNY     32  17  54 NW21G26   30.00R WCI  20
SISSETON         N/A     30  13  49 NW26G33   30.02S WCI  16
$$

SDZ017-020-022-023-036>040-048>070-182100-
SOUTHEAST SOUTH DAKOTA

CITY           SKY/WX    TMP DP  RH WIND       PRES   REMARKS
SIOUX FALLS    SUNNY     37  20  50 NW24G32   30.02R
HURON          SUNNY     35  17  47 NW21      30.08F WCI  24
CHAMBERLAIN    SUNNY     37  22  54 NW17      30.12S
MITCHELL       SUNNY     36  18  48 NW20      30.10S
YANKTON        SUNNY     38  21  50 NW28G35   30.06R
$$

ABBREVIATIONS USED IN REMARKS
   TC - TEMPERATURE IN CELSIUS
  WCI - WIND CHILL INDEX
   HX - HEAT INDEX
  VSB - VISIBILITY





USA.gov is the U.S. government's official web portal to all federal, state and local government web resources and services.